Driggs, ID

9:59 PM MDT on May 22, 2017 (GMT -0600)
Driggs

Weather History for KDIJ - June, 2013

Change the Weather History Date:

Monday, June 17, 2013

  Actual Average (KJAC) Record (KJAC)
Temperature  
Mean Temperature 60 °F -  
Max Temperature 81 °F 68 °F 85 °F (1961)
Min Temperature 39 °F 36 °F 26 °F (2000)
Degree Days  
Heating Degree Days 5    
Growing Degree Days 10 (Base 50)    
Moisture  
Dew Point 33 °F    
Average Humidity 38    
Maximum Humidity 73    
Minimum Humidity 15    
Precipitation  
Precipitation 0.00 in - - ()
Sea Level Pressure  
Sea Level Pressure 29.92 in    
Wind  
Wind Speed 6 mph (SSE)    
Max Wind Speed 20 mph    
Max Gust Speed 25 mph    
Visibility 10 miles    
Events      
Averages and records for this station are not official NWS values.
T = Trace of Precipitation, MM = Missing Value Source: NWS Daily Summary

Daily Weather History Graph

Daily Weather History Graph

Search for Another Location

Airport or City:

Trip Planner

Search our weather history database for the weather conditions in past years. The results will help you decide how hot, cold, wet, or windy it might be!

Date:

Astronomy

Jun. 17, 2013 Rise Set
Actual Time 5:42 AM MDT 9:08 PM MDT
Civil Twilight 5:05 AM MDT 9:45 PM MDT
Nautical Twilight 4:18 AM MDT 10:32 PM MDT
Astronomical Twilight 3:18 AM MDT 11:32 PM MDT
Moon 2:42 PM MDT (6/17) 1:30 AM MDT (6/17)
Length of Visible Light 16h 39m
Length of Day
15h 26m
First Quarter, 61% of the Moon is Illuminated
Jun 17
First Quarter
Jun 23
Full
Jun 29
Last Quarter
Jul 8
New
Jul 15
First Quarter

Hourly Weather History & Observations

Time (MDT) Temp. Windchill Dew Point Humidity Pressure Visibility Wind Dir Wind Speed Gust Speed Precip Events Conditions
12:56 AM 45.0 °F 41.2 °F 32.9 °F 63% 29.95 in 10.0 mi East 6.9 mph - N/A   Clear
1:56 AM 47.8 °F - 32.9 °F 56% 29.94 in 10.0 mi East 6.9 mph - N/A   Clear
2:56 AM 45.9 °F 42.9 °F 34.0 °F 63% 29.94 in 10.0 mi East 5.8 mph - N/A   Clear
3:56 AM 43.0 °F - 32.9 °F 68% 29.96 in 10.0 mi Calm Calm - N/A   Clear
4:56 AM 39.9 °F - 32.0 °F 73% 29.97 in 10.0 mi Calm Calm - N/A   Clear
5:56 AM 39.9 °F 35.8 °F 32.0 °F 73% 29.98 in 10.0 mi ENE 5.8 mph - N/A   Clear
6:56 AM 46.9 °F - 34.9 °F 63% 29.98 in 10.0 mi South 4.6 mph - N/A   Clear
7:56 AM 55.9 °F - 39.9 °F 55% 29.95 in 10.0 mi ESE 3.5 mph - N/A   Clear
8:56 AM 64.9 °F - 36.0 °F 34% 29.96 in 10.0 mi Calm Calm - N/A   Clear
9:56 AM 70.0 °F - 34.9 °F 28% 29.95 in 10.0 mi Variable 3.5 mph - N/A   Clear
10:56 AM 74.8 °F - 36.0 °F 24% 29.95 in 10.0 mi Variable 3.5 mph - N/A   Clear
11:56 AM 77.0 °F - 29.1 °F 17% 29.95 in 10.0 mi Variable 4.6 mph - N/A   Clear
12:56 PM 79.0 °F - 29.1 °F 16% 29.94 in 10.0 mi WNW 5.8 mph - N/A   Clear
1:56 PM 79.9 °F - 28.0 °F 15% 29.92 in 10.0 mi WNW 12.7 mph 19.6 mph N/A   Clear
2:56 PM 81.0 °F - 31.1 °F 16% 29.91 in 10.0 mi NNW 10.4 mph - N/A   Clear
3:56 PM 81.9 °F - 29.1 °F 15% 29.91 in 10.0 mi WSW 19.6 mph 25.3 mph N/A   Partly Cloudy
4:56 PM 79.0 °F - 31.1 °F 17% 29.92 in 10.0 mi Variable 4.6 mph - N/A   Scattered Clouds
5:56 PM 75.9 °F - 31.1 °F 19% 29.92 in 10.0 mi SSW 8.1 mph - N/A   Clear
6:56 PM 77.9 °F - 29.1 °F 17% 29.88 in 10.0 mi South 5.8 mph - N/A   Clear
7:56 PM 75.9 °F - 27.1 °F 16% 29.86 in 10.0 mi WSW 4.6 mph - N/A   Clear
8:56 PM 66.9 °F - 41.0 °F 39% 29.85 in 10.0 mi ESE 6.9 mph - N/A   Clear
9:56 PM 55.9 °F - 32.9 °F 42% 29.87 in 10.0 mi East 11.5 mph - N/A   Clear
10:56 PM 56.8 °F - 32.0 °F 39% 29.86 in 10.0 mi WSW 4.6 mph - N/A   Clear
11:56 PM 52.0 °F - 34.0 °F 50% 29.85 in 10.0 mi Calm Calm - N/A   Clear